DLH067 EDDC-EDDF

Flight info

Callsign DLH067
Flight time 0h 48m
Altitude 28000
Route ABKIS4E ABKIS Z715 NURGO T170 GAPLA T178 KERAX KERAX5A
Aircraft A319/M-SDE3FGHIRWY/LB1

Departure

Time 2026-05-06 17:11
Airport Dresden Airport (EDDC)

Arrival

Time 2026-05-06 18:00
Airport Frankfurt Main Airport (EDDF)
Time Latitude Longitude Altitude Speed Heading
2026-05-06 16:33 51.12626 13.76540 753 ft 0 kts 221°
2026-05-06 16:59 51.12636 13.76553 748 ft 4 kts 221°
2026-05-06 16:59 51.12653 13.76577 748 ft 3 kts 221°
2026-05-06 16:59 51.12667 13.76606 748 ft 4 kts 266°
2026-05-06 17:00 51.12661 13.76640 749 ft 3 kts 311°
2026-05-06 17:00 51.12649 13.76661 748 ft 0 kts 311°
2026-05-06 17:06 51.12659 13.76644 750 ft 4 kts 311°
2026-05-06 17:07 51.12685 13.76596 753 ft 7 kts 310°
2026-05-06 17:07 51.12732 13.76509 753 ft 13 kts 310°
2026-05-06 17:07 51.12780 13.76385 754 ft 14 kts 260°
2026-05-06 17:07 51.12710 13.76280 752 ft 14 kts 220°
2026-05-06 17:08 51.12647 13.76193 757 ft 12 kts 221°
2026-05-06 17:08 51.12598 13.76126 758 ft 3 kts 220°
2026-05-06 17:08 51.12576 13.76095 757 ft 5 kts 220°
2026-05-06 17:08 51.12539 13.76046 759 ft 9 kts 220°
2026-05-06 17:09 51.12484 13.75971 762 ft 12 kts 220°
2026-05-06 17:09 51.12410 13.75870 763 ft 16 kts 220°
2026-05-06 17:09 51.12362 13.75789 764 ft 4 kts 282°
2026-05-06 17:09 51.12381 13.75725 764 ft 9 kts 295°
2026-05-06 17:10 51.12411 13.75618 764 ft 11 kts 292°
2026-05-06 17:10 51.12452 13.75517 764 ft 10 kts 309°
2026-05-06 17:10 51.12502 13.75517 764 ft 6 kts 44°
2026-05-06 17:10 51.12513 13.75534 764 ft 1 kts 44°
2026-05-06 17:11 51.12554 13.75592 764 ft 19 kts 41°
2026-05-06 17:11 51.12799 13.75928 762 ft 88 kts 40°
2026-05-06 17:11 51.13405 13.76751 797 ft 149 kts 39°
2026-05-06 17:11 51.14183 13.77878 1593 ft 144 kts 41°
2026-05-06 17:12 51.14931 13.78942 2279 ft 153 kts 40°
2026-05-06 17:12 51.15794 13.80133 2750 ft 177 kts 40°
2026-05-06 17:12 51.16790 13.81527 3252 ft 200 kts 41°
2026-05-06 17:12 51.17917 13.83093 3742 ft 228 kts 40°
2026-05-06 17:13 51.19163 13.84830 4375 ft 254 kts 44°
2026-05-06 17:13 51.20112 13.87317 5041 ft 276 kts 78°
2026-05-06 17:13 51.20192 13.90376 6065 ft 281 kts 103°
2026-05-06 17:13 51.19432 13.93245 6650 ft 282 kts 127°
2026-05-06 17:14 51.18154 13.95564 6928 ft 281 kts 142°
2026-05-06 17:14 51.16689 13.97656 8088 ft 282 kts 140°
2026-05-06 17:14 51.15294 13.99861 9295 ft 285 kts 138°
2026-05-06 17:14 51.13898 14.02167 10193 ft 298 kts 138°
2026-05-06 17:15 51.12427 14.04617 10745 ft 320 kts 137°
2026-05-06 17:15 51.10874 14.07218 11641 ft 328 kts 137°
2026-05-06 17:15 51.09201 14.09702 12603 ft 330 kts 149°
2026-05-06 17:15 51.07119 14.11147 13545 ft 327 kts 171°
2026-05-06 17:16 51.04866 14.11215 14417 ft 325 kts 193°
2026-05-06 17:16 51.02765 14.09930 15296 ft 326 kts 213°
2026-05-06 17:16 51.01030 14.07591 16193 ft 329 kts 224°
2026-05-06 17:16 50.99375 14.05052 17063 ft 333 kts 224°
2026-05-06 17:17 50.97702 14.02480 17933 ft 337 kts 223°
2026-05-06 17:17 50.96028 13.99914 18672 ft 341 kts 223°
2026-05-06 17:17 50.94315 13.97297 19483 ft 343 kts 223°
2026-05-06 17:17 50.92589 13.94670 20290 ft 345 kts 223°
2026-05-06 17:18 50.90850 13.92031 21081 ft 348 kts 223°
2026-05-06 17:18 50.89094 13.89371 21868 ft 351 kts 223°
2026-05-06 17:18 50.87320 13.86685 22645 ft 354 kts 223°
2026-05-06 17:18 50.85693 13.83759 23390 ft 359 kts 237°
2026-05-06 17:19 50.84897 13.79979 23994 ft 371 kts 261°
2026-05-06 17:19 50.84953 13.75906 24625 ft 378 kts 269°
2026-05-06 17:19 50.84962 13.71751 25245 ft 377 kts 263°
2026-05-06 17:19 50.84817 13.67595 25858 ft 380 kts 263°
2026-05-06 17:20 50.84654 13.63404 26469 ft 383 kts 262°
2026-05-06 17:20 50.84478 13.59187 27062 ft 385 kts 262°
2026-05-06 17:20 50.84294 13.54942 27592 ft 389 kts 262°
2026-05-06 17:20 50.84105 13.50679 27743 ft 388 kts 262°
2026-05-06 17:21 50.83922 13.46513 27762 ft 370 kts 262°
2026-05-06 17:21 50.83746 13.42532 27767 ft 359 kts 262°
2026-05-06 17:21 50.83572 13.38615 27766 ft 355 kts 262°
2026-05-06 17:21 50.83394 13.34727 27767 ft 354 kts 261°
2026-05-06 17:22 50.83214 13.30893 27767 ft 354 kts 261°
2026-05-06 17:22 50.83030 13.27005 27764 ft 354 kts 261°
2026-05-06 17:22 50.82848 13.23135 27789 ft 354 kts 261°
2026-05-06 17:22 50.82666 13.19240 27763 ft 355 kts 261°
2026-05-06 17:23 50.82483 13.15353 27763 ft 355 kts 261°
2026-05-06 17:23 50.82301 13.11465 27762 ft 354 kts 261°
2026-05-06 17:23 50.82116 13.07583 27762 ft 354 kts 261°
2026-05-06 17:23 50.81928 13.03700 27763 ft 354 kts 261°
2026-05-06 17:24 50.81742 12.99875 27762 ft 354 kts 261°
2026-05-06 17:24 50.81552 12.96002 27762 ft 354 kts 261°
2026-05-06 17:24 50.81360 12.92128 27761 ft 354 kts 261°
2026-05-06 17:24 50.81168 12.88246 27758 ft 354 kts 261°
2026-05-06 17:25 50.80977 12.84374 27758 ft 354 kts 261°
2026-05-06 17:25 50.80786 12.80499 27757 ft 354 kts 261°
2026-05-06 17:25 50.80594 12.76619 27757 ft 354 kts 261°
2026-05-06 17:25 50.80400 12.72745 27779 ft 354 kts 261°
2026-05-06 17:26 50.80202 12.68867 27770 ft 354 kts 261°
2026-05-06 17:26 50.80003 12.64986 27765 ft 355 kts 261°
2026-05-06 17:26 50.79806 12.61152 27760 ft 355 kts 261°
2026-05-06 17:26 50.79609 12.57260 27757 ft 355 kts 261°
2026-05-06 17:27 50.79410 12.53377 27755 ft 355 kts 261°
2026-05-06 17:27 50.79205 12.49485 27752 ft 355 kts 261°
2026-05-06 17:27 50.78993 12.45597 27753 ft 355 kts 261°
2026-05-06 17:27 50.78780 12.41707 27754 ft 355 kts 261°
2026-05-06 17:28 50.78569 12.37814 27755 ft 355 kts 261°
2026-05-06 17:28 50.78359 12.33930 27757 ft 355 kts 261°
2026-05-06 17:28 50.78147 12.30040 27759 ft 355 kts 261°
2026-05-06 17:28 50.77935 12.26155 27765 ft 355 kts 261°
2026-05-06 17:29 50.77723 12.22307 27761 ft 356 kts 261°
2026-05-06 17:29 50.77508 12.18419 27752 ft 357 kts 261°
2026-05-06 17:29 50.77290 12.14507 27757 ft 357 kts 261°
2026-05-06 17:29 50.77071 12.10601 27755 ft 358 kts 261°
2026-05-06 17:30 50.76851 12.06686 27753 ft 358 kts 261°
2026-05-06 17:30 50.76631 12.02772 27752 ft 358 kts 261°
2026-05-06 17:30 50.76410 11.98847 27753 ft 359 kts 261°
2026-05-06 17:30 50.76187 11.94924 27754 ft 359 kts 261°
2026-05-06 17:31 50.75964 11.91003 27755 ft 359 kts 261°
2026-05-06 17:31 50.75737 11.87081 27748 ft 359 kts 261°
2026-05-06 17:31 50.75505 11.83156 27755 ft 359 kts 261°
2026-05-06 17:31 50.75275 11.79288 27760 ft 359 kts 261°
2026-05-06 17:32 50.75042 11.75365 27790 ft 359 kts 261°
2026-05-06 17:32 50.74809 11.71434 27779 ft 360 kts 261°
2026-05-06 17:32 50.74574 11.67499 27760 ft 360 kts 261°
2026-05-06 17:32 50.74337 11.63569 27761 ft 360 kts 261°
2026-05-06 17:33 50.74097 11.59629 27762 ft 360 kts 261°
2026-05-06 17:33 50.73857 11.55689 27761 ft 361 kts 261°
2026-05-06 17:33 50.73616 11.51750 27761 ft 361 kts 261°
2026-05-06 17:33 50.73374 11.47807 27761 ft 361 kts 261°
2026-05-06 17:34 50.73132 11.43872 27762 ft 361 kts 261°
2026-05-06 17:34 50.72886 11.39934 27762 ft 361 kts 261°
2026-05-06 17:34 50.72638 11.35992 27764 ft 361 kts 261°
2026-05-06 17:34 50.72390 11.32051 27765 ft 361 kts 261°
2026-05-06 17:35 50.72143 11.28108 27784 ft 361 kts 261°
2026-05-06 17:35 50.71895 11.24174 27779 ft 361 kts 261°
2026-05-06 17:35 50.71643 11.20228 27772 ft 361 kts 261°
2026-05-06 17:36 50.71130 11.12329 27765 ft 362 kts 261°
2026-05-06 17:36 50.70877 11.08431 27771 ft 362 kts 261°
2026-05-06 17:36 50.70620 11.04476 27770 ft 362 kts 261°
2026-05-06 17:36 50.70360 11.00520 27771 ft 363 kts 261°
2026-05-06 17:37 50.70101 10.96565 27770 ft 363 kts 261°
2026-05-06 17:37 50.69839 10.92604 27769 ft 363 kts 261°
2026-05-06 17:37 50.69575 10.88652 27771 ft 363 kts 261°
2026-05-06 17:37 50.69308 10.84699 27774 ft 362 kts 261°
2026-05-06 17:38 50.69041 10.80746 27771 ft 362 kts 261°
2026-05-06 17:38 50.68776 10.76786 27784 ft 366 kts 261°
2026-05-06 17:38 50.68499 10.72705 27502 ft 382 kts 261°
2026-05-06 17:38 50.68212 10.68501 26537 ft 390 kts 261°
2026-05-06 17:39 50.67921 10.64256 25891 ft 388 kts 261°
2026-05-06 17:39 50.67633 10.60048 25300 ft 385 kts 262°
2026-05-06 17:39 50.67348 10.55917 24736 ft 383 kts 262°
2026-05-06 17:39 50.67059 10.51763 24190 ft 380 kts 262°
2026-05-06 17:40 50.66772 10.47643 23668 ft 378 kts 262°
2026-05-06 17:40 50.66488 10.43533 23137 ft 376 kts 262°
2026-05-06 17:40 50.66202 10.39455 22571 ft 373 kts 262°
2026-05-06 17:40 50.65916 10.35406 22032 ft 370 kts 262°
2026-05-06 17:41 50.65632 10.31396 21502 ft 367 kts 261°
2026-05-06 17:41 50.65057 10.27512 21003 ft 362 kts 249°
2026-05-06 17:41 50.63979 10.23954 20489 ft 358 kts 240°
2026-05-06 17:41 50.62784 10.20535 19957 ft 356 kts 240°
2026-05-06 17:42 50.61599 10.17130 19453 ft 353 kts 240°
2026-05-06 17:42 50.60426 10.13746 18943 ft 351 kts 240°
2026-05-06 17:42 50.59260 10.10380 18450 ft 349 kts 240°
2026-05-06 17:42 50.58102 10.07044 17948 ft 346 kts 240°
2026-05-06 17:43 50.56947 10.03733 17403 ft 344 kts 240°
2026-05-06 17:43 50.55803 10.00455 16992 ft 339 kts 240°
2026-05-06 17:43 50.54688 9.97251 16728 ft 329 kts 241°
2026-05-06 17:43 50.53817 9.93973 16465 ft 322 kts 252°
2026-05-06 17:44 50.53218 9.90610 16214 ft 317 kts 253°
2026-05-06 17:44 50.52624 9.87280 15950 ft 315 kts 253°
2026-05-06 17:44 50.52034 9.84015 15695 ft 314 kts 253°
2026-05-06 17:44 50.51436 9.80724 15448 ft 313 kts 253°
2026-05-06 17:45 50.50843 9.77450 15219 ft 312 kts 253°
2026-05-06 17:45 50.50252 9.74190 14964 ft 309 kts 253°
2026-05-06 17:45 50.49672 9.70939 14715 ft 308 kts 253°
2026-05-06 17:45 50.49111 9.67696 14476 ft 307 kts 253°
2026-05-06 17:46 50.48560 9.64466 14237 ft 306 kts 254°
2026-05-06 17:46 50.48014 9.61244 13993 ft 305 kts 254°
2026-05-06 17:46 50.47466 9.58027 13752 ft 304 kts 253°
2026-05-06 17:46 50.46895 9.54832 13501 ft 304 kts 252°
2026-05-06 17:47 50.46300 9.51660 13233 ft 303 kts 252°
2026-05-06 17:47 50.45709 9.48571 12949 ft 296 kts 252°
2026-05-06 17:47 50.45110 9.45455 12559 ft 294 kts 252°
2026-05-06 17:47 50.44493 9.42398 12145 ft 293 kts 247°
2026-05-06 17:48 50.43354 9.39792 11719 ft 291 kts 226°
2026-05-06 17:48 50.41922 9.37555 11294 ft 290 kts 224°
2026-05-06 17:48 50.40475 9.35363 10888 ft 289 kts 224°
2026-05-06 17:48 50.39033 9.33186 10480 ft 287 kts 224°
2026-05-06 17:49 50.37602 9.31031 10151 ft 282 kts 224°
2026-05-06 17:49 50.36201 9.28932 9872 ft 276 kts 224°
2026-05-06 17:49 50.34817 9.26864 9480 ft 274 kts 224°
2026-05-06 17:49 50.33442 9.24816 9073 ft 272 kts 224°
2026-05-06 17:50 50.32073 9.22788 8646 ft 270 kts 224°
2026-05-06 17:50 50.30711 9.20779 8221 ft 268 kts 224°
2026-05-06 17:50 50.29379 9.18815 7783 ft 266 kts 224°
2026-05-06 17:50 50.28021 9.16814 7327 ft 264 kts 224°
2026-05-06 17:51 50.26702 9.14883 6907 ft 262 kts 224°
2026-05-06 17:51 50.25379 9.12950 6799 ft 261 kts 224°
2026-05-06 17:51 50.24050 9.11008 6806 ft 259 kts 224°
2026-05-06 17:51 50.22782 9.09159 6804 ft 240 kts 224°
2026-05-06 17:52 50.21594 9.07427 6807 ft 231 kts 224°
2026-05-06 17:52 50.20432 9.05730 6806 ft 225 kts 224°
2026-05-06 17:52 50.19329 9.04124 6804 ft 210 kts 224°
2026-05-06 17:52 50.18266 9.02585 6701 ft 207 kts 224°
2026-05-06 17:53 50.17210 9.01060 6404 ft 206 kts 224°
2026-05-06 17:53 50.16162 8.99543 6099 ft 205 kts 224°
2026-05-06 17:53 50.15115 8.98029 5788 ft 205 kts 224°
2026-05-06 17:53 50.14076 8.96530 5537 ft 201 kts 224°
2026-05-06 17:54 50.13070 8.95085 5412 ft 192 kts 224°
2026-05-06 17:54 50.12240 8.93486 5111 ft 192 kts 246°
2026-05-06 17:54 50.11773 8.91532 4832 ft 193 kts 250°
2026-05-06 17:54 50.11314 8.89572 4565 ft 192 kts 250°
2026-05-06 17:55 50.10856 8.87624 4298 ft 191 kts 250°
2026-05-06 17:55 50.10399 8.85677 4034 ft 191 kts 250°
2026-05-06 17:55 50.09944 8.83745 3810 ft 187 kts 250°
2026-05-06 17:55 50.09524 8.81964 3545 ft 182 kts 251°
2026-05-06 17:56 50.09094 8.80138 3301 ft 177 kts 251°
2026-05-06 17:56 50.08676 8.78366 3062 ft 172 kts 251°
2026-05-06 17:56 50.08267 8.76633 2831 ft 170 kts 251°
2026-05-06 17:56 50.07861 8.74915 2603 ft 169 kts 252°
2026-05-06 17:57 50.07457 8.73208 2379 ft 168 kts 252°
2026-05-06 17:57 50.07034 8.71419 2135 ft 172 kts 252°
2026-05-06 17:57 50.06638 8.69752 1915 ft 158 kts 253°
2026-05-06 17:57 50.06271 8.68208 1707 ft 147 kts 253°
2026-05-06 17:58 50.05931 8.66774 1511 ft 136 kts 254°
2026-05-06 17:58 50.05610 8.65419 1332 ft 133 kts 254°
2026-05-06 17:58 50.05291 8.64082 1126 ft 130 kts 255°
2026-05-06 17:58 50.04984 8.62780 934 ft 127 kts 255°
2026-05-06 17:59 50.04775 8.61909 813 ft 126 kts 253°
2026-05-06 17:59 50.04368 8.60203 575 ft 125 kts 255°
2026-05-06 17:59 50.04075 8.58957 433 ft 126 kts 254°
2026-05-06 17:59 50.03781 8.57720 367 ft 112 kts 251°
2026-05-06 18:00 50.03561 8.56791 353 ft 67 kts 250°
2026-05-06 18:00 50.03455 8.56344 353 ft 31 kts 250°
2026-05-06 18:00 50.03440 8.56026 349 ft 30 kts 281°
2026-05-06 18:00 50.03465 8.55804 352 ft 16 kts 279°
2026-05-06 18:01 50.03472 8.55737 345 ft 0 kts 280°
2026-05-06 18:01 50.03473 8.55729 345 ft 3 kts 280°
2026-05-06 18:01 50.03482 8.55653 347 ft 9 kts 279°
2026-05-06 18:01 50.03489 8.55585 345 ft 9 kts 279°
2026-05-06 18:02 50.03489 8.55478 349 ft 10 kts 259°
2026-05-06 18:02 50.03466 8.55362 346 ft 12 kts 250°
2026-05-06 18:02 50.03433 8.55228 348 ft 14 kts 249°
2026-05-06 18:02 50.03393 8.55057 343 ft 17 kts 251°
2026-05-06 18:03 50.03352 8.54881 344 ft 17 kts 249°
2026-05-06 18:03 50.03317 8.54729 336 ft 14 kts 250°
2026-05-06 18:03 50.03284 8.54592 336 ft 14 kts 250°
2026-05-06 18:03 50.03318 8.54479 336 ft 14 kts 338°
2026-05-06 18:04 50.03409 8.54429 341 ft 14 kts 340°
2026-05-06 18:04 50.03491 8.54377 350 ft 14 kts 339°
2026-05-06 18:04 50.03590 8.54321 341 ft 12 kts 340°
2026-05-06 18:04 50.03638 8.54303 344 ft 0 kts
2026-05-06 18:08 50.03642 8.54304 345 ft 2 kts
2026-05-06 18:08 50.03654 8.54316 342 ft 0 kts 41°
2026-05-06 18:09 50.03655 8.54317 342 ft 0 kts 42°
2026-05-06 18:10 50.03655 8.54318 349 ft 1 kts 47°
2026-05-06 18:10 50.03670 8.54368 350 ft 10 kts 69°
2026-05-06 18:10 50.03706 8.54517 344 ft 19 kts 70°
2026-05-06 18:11 50.03758 8.54737 348 ft 23 kts 69°
2026-05-06 18:11 50.03816 8.54980 354 ft 24 kts 70°
2026-05-06 18:11 50.03866 8.55184 349 ft 16 kts 70°
2026-05-06 18:11 50.03910 8.55366 349 ft 20 kts 69°
2026-05-06 18:12 50.03924 8.55427 355 ft 5 kts 70°
2026-05-06 18:12 50.03935 8.55474 350 ft 6 kts 70°
2026-05-06 18:12 50.03955 8.55555 357 ft 10 kts 69°
2026-05-06 18:12 50.03990 8.55702 349 ft 18 kts 70°
2026-05-06 18:13 50.04044 8.55931 352 ft 28 kts 70°
2026-05-06 18:13 50.04111 8.56214 359 ft 29 kts 70°
2026-05-06 18:13 50.04163 8.56431 356 ft 14 kts 69°
2026-05-06 18:13 50.04193 8.56557 356 ft 11 kts 69°
2026-05-06 18:14 50.04215 8.56650 360 ft 8 kts 70°
2026-05-06 18:14 50.04231 8.56717 360 ft 6 kts 71°
2026-05-06 18:14 50.04259 8.56792 363 ft 10 kts 41°
2026-05-06 18:14 50.04342 8.56822 360 ft 14 kts
2026-05-06 18:15 50.04432 8.56846 360 ft 12 kts 14°
2026-05-06 18:15 50.04485 8.56868 359 ft 12 kts 14°
2026-05-06 18:15 50.04563 8.56895 359 ft 10 kts 13°
2026-05-06 18:15 50.04617 8.56911 356 ft 3 kts 354°
2026-05-06 18:16 50.04626 8.56900 358 ft 1 kts 316°
2026-05-06 18:16 50.04632 8.56885 356 ft 2 kts 303°
2026-05-06 18:16 50.04638 8.56866 356 ft 3 kts 296°
2026-05-06 18:16 50.04648 8.56832 359 ft 4 kts 295°
2026-05-06 18:17 50.04654 8.56814 358 ft 0 kts 295°
2026-05-06 18:17 50.04655 8.56809 358 ft 1 kts 295°
2026-05-06 18:17 50.04656 8.56808 357 ft 0 kts 295°